This demonstration page uses our WeatherBlox Daily Observations layout. Learn more.

Left ArrowRight Arrow

Hourly Observations for June 28, 2022

Temp ( °F °C ) Dew Point ( °F °C ) Humidity (%) Winds ( mph kmh ) Pressure ( in mb ) Visibility ( mi km ) Precip ( " mm )
12:54 am 00:54 Clear 65 18.3 55 12.8 70 70 S 6 9 30.20 1023 10 16 0.00 0.00
1:54 am 01:54 Clear 60 15.6 54 12.2 80 80 S 6 9 30.20 1023 10 16 0.00 0.00
2:54 am 02:54 Clear 60 15.6 54 12.2 80 80 SSE 6 9 30.20 1023 10 16 0.00 0.00
3:54 am 03:54 Clear 61 16.1 54 12.2 78 78 S 3 6 30.20 1023 10 16 0.00 0.00
4:54 am 04:54 Clear 62 16.7 53 11.7 73 73 SSW 6 9 30.20 1023 10 16 0.00 0.00
5:54 am 05:54 Clear 56 13.3 51 10.6 84 84 S 7 11 30.20 1023 10 16 0.00 0.00
6:54 am 06:54 Sunny 58 14.4 53 11.7 84 84 S 6 9 30.21 1023 10 16 0.00 0.00
7:54 am 07:54 Sunny 63 17.2 54 12.2 73 73 S 6 9 30.21 1023 10 16 0.00 0.00
8:54 am 08:54 Sunny 70 21.1 54 12.2 57 57 SW 12 19 30.19 1022 10 16 0.00 0.00
9:54 am 09:54 Sunny 73 22.8 55 12.8 53 53 SW 16 26 30.18 1022 10 16 0.00 0.00
10:54 am 10:54 Sunny 79 26.1 59 15 50 50 SW 18 30 30.16 1021 10 16 0.00 0.00
11:54 am 11:54 Sunny 82 27.8 56 13.3 41 41 SW 18 30 30.14 1021 10 16 0.00 0.00
12:54 pm 12:54 Sunny 84 28.9 56 13.3 38 38 SSW 16 26 30.13 1020 10 16 0.00 0.00
1:54 pm 13:54 Sunny 85 29.4 57 13.9 39 39 SSW 22 35 30.12 1020 10 16 0.00 0.00
2:54 pm 14:54 Sunny 87 30.6 57 13.9 36 36 SW 18 30 30.08 1019 10 16 0.00 0.00
3:54 pm 15:54 Sunny 88 31.1 59 15 38 38 SSW 17 28 30.06 1018 10 16 0.00 0.00
4:54 pm 16:54 Sunny 89 31.7 58 14.4 35 35 SW 21 33 30.05 1018 10 16 0.00 0.00
5:54 pm 17:54 Sunny 89 31.7 57 13.9 34 34 SW 17 28 30.05 1018 10 16 0.00 0.00
6:54 pm 18:54 Sunny 88 31.1 58 14.4 36 36 SSW 12 19 30.04 1017 10 16 0.00 0.00
7:54 pm 19:54 Sunny 85 29.4 59 15 42 42 SSW 9 15 30.03 1017 10 16 0.00 0.00
8:54 pm 20:54 Sunny 77 25 60 15.6 56 56 S 9 15 30.03 1017 10 16 0.00 0.00
9:54 pm 21:54 Clear 76 24.4 60 15.6 58 58 S 10 17 30.04 1017 10 16 0.00 0.00
10:54 pm 22:54 Clear 71 21.7 59 15 66 66 S 7 11 30.06 1018 10 16 0.00 0.00
11:54 pm 23:54 Clear 71 21.7 59 15 66 66 S 5 7 30.06 1018 10 16 0.00 0.00

Powered by AerisWeather